{"data":{"norad_id":67696,"intl_designator":"2026-025D","name":"STARLINK-36401","alt_names":[],"object_type":"PAYLOAD","status":"ACTIVE","operator":null,"country":"US","launch_date":"2026-02-07","launch_site_code":"AFWTR","launch_vehicle":null,"mission":null,"orbit_class":"UNKNOWN","rcs_meters":null,"size_class":null,"mass_kg":null,"dimensions":null,"purposes":["comms"],"wikipedia_slug":null,"has_3d_model":false,"image_url":null,"decayed_at":null,"tle_current":{"epoch":"2026-09-19T13:24:20.117952Z","epoch_age_seconds":150506,"freshness":"FRESH","line1":"1 67696U 26025D   26262.55856618  .00020234  00000+0  62725-3 0  9996","line2":"2 67696  97.2851  12.5053 0000816  90.1269 270.0068 15.33452969 35723","mean_motion":15.33452969,"eccentricity":8.16e-5,"inclination_deg":97.2851,"raan_deg":12.5053,"arg_perigee_deg":90.1269,"mean_anomaly_deg":270.0068,"bstar":0.00062725,"rev_number":3572,"period_min":93.905716648034,"perigee_km":464.96102207598,"apogee_km":466.07790681098,"semimajor_km":6843.6564644435,"source":"CELESTRAK","updated_at":"2026-09-20T09:00:43.627307Z"}}}